User: anonymous
Location: Unspecified
(0.0000°N, 0.0000°E)
Time: 21:54:21
(UTC+02:00)
Language:

CZ-4 DEB - Orbit

View from above orbital plane
View from above orbital plane
View from above satellite
View from above satellite

Ground track
Ground track

The orbit data is extracted from the following two-line orbital elements,

1 29508U 06046D   14206.10822834  .00004293  00000-0  25020-3 0  6279
2 29508 097.7041 213.3821 0007414 153.2146 249.1058 15.12516177423051
Epoch (UTC): 25 July 2014 02:35:50
Eccentricity: 0.0007414
inclination: 97.7041°
perigee height: 523 km
apogee height: 533 km
right ascension of ascending node: 213.3821°
argument of perigee: 153.2146°
revolutions per day: 15.12516177
mean anomaly at epoch: 249.1058°
orbit number at epoch: 42305

The dashed part of the orbit path shows where the satellite is in the earth's shadow,  

DLR